Location: Barruelo
(41.2448°N, 3.8231°W)
Time: 16:23:56
(UTC+00:00)

Meteor 1-5 Rocket - Pass Details

Date: 11 December 2025
Orbit: 788 x 913 km, 81.2° (Epoch: 16 January)

Event Time Altitude Azimuth Distance (km) Brightness Sun altitude
Rises 18:16:19 0° 350° (N) 3,307 7.2 -16.3°
Reaches altitude 10° 18:18:41 10° 350° (N) 2,383 6.5 -16.7°
Maximum altitude 18:24:04 89° 265° (W) 821 4.1 -17.7°
Drops below altitude 10° 18:29:34 10° 173° (S) 2,435 6.7 -18.7°
Sets 18:32:00 0° 173° (S) 3,384 7.4 -19.2°
